Find Kosmos-2351

NORAD ID: 25327 Int'l Des: 1998-027 Owner: PVO Country: RU operational
MEOELLIPTICALHEO_ELLIPTICALSEMI_SYNCMOLNIYA

Current View

Loading 3D Globe...

About Kosmos-2351

Description loading...

Upcoming Passes

Passes for default location (London). Set your location on the main map for personalized predictions.

Altitude History

Loading altitude history...

Two-Line Element Set

1 25327U 98027A 26149.30796475 .00000901 00000-0 00000+0 0 9997
2 25327 63.7144 121.3220 7050381 180.1422 179.6558 2.00495038205581
Epoch: May 29, 2026 • Age: 27 hours

Current Status

Altitude 28288.1 km
Velocity 2.83 km/s
Sub-Earth Point 26.10°N, 86.91°E
Launch Date May 7, 1998
Age 28 years
Type other

Technical Details

Classification Payload
Mass 1250.00 kg
Dry Mass 1150.00 kg
Total Mass 1250.00 kg
Length 4.00 m
Diameter 2.00 m
Span 5.00 m
Shape Cyl + 2 Pan
Manufacturer NPOL/KOMET
Bus Type Oko
Phase Status In Orbit
Owner/State PVO/RU

Most Searched